Snowfall_Accumulation
0.5 0.4 0.5 0.3 0.4 0.3 0.4 0.3 0.3 0.4 0.4 0.6 0.3 0.3 0.3 0.2 0.2 0.2 0.5 0.5 0.4 0.4 0.4 0.2 0.3 0.3 0.5 0.5 0.2 0.1 0.2 0.5 1.1 0.4 0.4 0.2 0.2 0.2 0.2 0.1 0.1 0.1 0.1
0.9 0.7 0.5 0.4 0.4 0.4 0.4 0.4 0.3 0.4 0.4 0.4 0.5 0.4 0.4 0.2 0.2 0.2 0.3 0.4 0.5 0.5 0.5 0.2 0.3 0.3 0.4 0.5 0.7 0.2 0.3 0.4 1.2 1.5 0.9 0.9 0.5 0.4 0.3 0.4 0.4 0.4 0.3
1.2 1.3 1.0 0.5 0.4 0.5 0.6 0.5 0.3 0.4 0.4 0.5 0.5 0.5 0.7 0.3 0.3 0.2 0.3 0.4 0.5 0.6 0.4 0.2 0.3 0.5 0.5 0.6 0.5 0.2 0.5 0.6 1.2 1.8 1.0 0.7 0.6 0.2 0.3 0.3 0.3 0.4 0.1
1.4 1.4 1.5 1.4 0.7 0.7 0.6 0.6 0.4 0.5 0.5 0.5 0.6 0.6 0.6 0.6 0.4 0.5 0.5 0.5 0.5 0.6 0.4 0.3 0.3 0.4 0.7 1.0 1.2 1.1 1.5 1.4 1.5 1.9 1.9 1.5 1.3 0.6 0.6 0.7 0.7 0.5 0.4
1.2 1.2 1.4 1.6 1.0 0.9 0.8 0.8 1.0 0.7 0.6 0.7 0.8 0.8 0.8 0.7 0.5 0.6 0.7 0.7 0.8 0.6 0.5 0.5 0.5 0.6 0.7 1.0 1.5 1.9 1.7 2.2 2.9 3.4 3.1 2.2 1.5 1.0 0.8 0.8 1.1 0.8 0.6
1.3 1.3 1.4 1.7 1.1 1.3 1.3 1.1 1.0 1.5 1.3 0.9 1.0 0.9 1.0 0.6 0.5 0.6 0.9 1.3 1.2 1.1 1.1 1.0 1.0 0.9 0.7 1.0 1.1 1.3 2.4 3.9 4.5 5.0 4.4 3.2 1.7 1.2 1.0 1.3 1.9 2.6 2.0
1.6 1.2 1.3 1.5 1.4 1.3 1.5 2.0 1.6 1.7 1.7 1.4 1.0 0.9 1.3 0.9 0.6 0.8 1.2 1.7 1.9 1.6 1.6 1.4 1.2 1.1 1.0 1.0 1.1 1.3 1.9 2.6 3.4 3.9 3.8 2.4 1.7 1.4 2.2 3.3 3.4 3.7 2.7
1.8 1.4 1.3 1.4 1.6 1.7 2.1 2.6 2.9 2.6 2.6 2.7 2.1 1.9 1.7 1.4 0.9 1.2 1.7 2.0 1.8 1.5 1.2 1.1 1.1 0.9 0.9 1.5 2.3 2.7 1.8 1.5 1.4 1.5 1.7 1.5 1.5 1.5 2.8 4.5 4.4 3.3 1.5
2.7 2.2 2.3 2.3 2.3 2.9 3.1 3.4 3.7 3.3 3.1 3.4 2.8 2.7 2.4 1.8 1.1 1.2 1.8 2.3 2.0 1.5 1.3 1.0 1.1 1.0 1.2 2.8 4.0 4.1 2.1 1.0 0.6 0.8 1.2 1.2 1.2 1.3 1.5 3.3 4.6 5.9 4.6
3.4 3.0 2.4 2.7 3.0 2.8 3.2 3.3 3.8 4.2 3.3 3.2 3.2 2.4 2.0 1.8 1.1 1.5 1.6 2.1 2.1 1.8 1.6 1.1 1.2 1.5 2.3 3.9 4.5 4.0 2.7 1.3 1.5 1.2 0.7 0.5 0.5 0.3 0.7 2.6 6.7 11.5 9.2
4.3 3.2 2.9 2.6 3.0 2.9 2.7 3.1 3.3 3.7 3.4 2.7 2.3 1.7 1.5 1.2 0.8 1.0 1.6 2.5 2.9 2.9 2.3 1.2 0.9 1.7 3.1 3.8 3.5 2.5 2.3 2.9 2.5 1.5 0.8 0.6 0.6 0.5 0.7 1.1 3.3 9.8 13.3
4.7 3.7 3.6 3.4 3.5 2.9 2.7 2.7 2.7 2.7 2.6 2.6 2.2 1.8 1.4 1.1 0.9 1.1 1.6 2.4 3.3 3.7 3.5 1.8 1.4 2.6 3.1 2.4 1.8 1.7 2.6 2.7 2.2 2.3 2.2 1.7 1.7 1.5 1.5 1.6 1.8 3.1 6.1
5.0 4.7 4.1 3.6 3.7 3.3 3.3 2.9 2.7 2.5 2.8 3.0 2.8 2.6 2.2 1.4 1.1 1.2 1.7 2.4 3.0 3.3 3.0 2.6 2.7 2.5 2.2 1.6 1.5 2.0 2.1 2.7 3.6 4.7 4.5 3.4 2.4 2.5 2.2 2.9 2.9 3.2 4.1
5.1 5.4 4.9 4.6 4.5 3.9 3.0 3.2 3.4 3.9 3.9 4.2 3.7 3.6 3.1 2.2 1.8 1.7 2.4 2.5 2.6 2.8 3.1 2.7 2.3 1.7 1.8 2.1 2.1 2.5 2.9 3.4 5.0 6.1 5.3 4.1 3.6 4.2 4.5 5.8 7.3 7.5 8.3
5.6 5.7 5.4 5.3 5.7 5.0 5.1 4.7 4.7 4.7 5.1 5.8 5.1 4.6 4.6 4.6 3.2 4.0 4.5 4.3 4.7 4.5 4.7 3.6 2.7 2.9 2.7 2.9 2.8 2.7 3.3 4.0 4.9 5.5 5.8 5.9 5.5 6.2 7.2 8.0 9.9 11.0 11.5
5.9 5.8 6.0 6.1 6.3 5.5 5.7 5.8 4.7 4.2 3.6 3.8 3.7 4.4 4.5 4.6 4.5 4.7 4.8 4.8 5.1 4.7 4.8 5.0 4.4 4.2 4.4 3.9 4.1 3.8 4.1 4.6 5.5 7.1 7.6 8.1 8.7 9.2 10.0 10.0 11.4 12.9 12.5
6.4 6.3 6.5 6.4 6.5 6.6 5.7 5.7 6.3 5.0 3.6 3.3 3.3 3.5 4.1 4.2 4.4 4.6 4.9 4.6 3.9 3.5 4.5 5.5 5.4 5.3 5.3 5.1 5.5 5.4 5.7 5.5 7.0 9.0 9.9 10.5 11.2 11.3 12.1 12.8 12.9 12.9 11.6
5.5 6.1 6.2 6.5 6.7 6.4 6.1 5.7 5.5 5.7 5.6 5.0 4.2 3.6 3.5 3.3 3.7 4.1 4.2 3.8 3.8 3.4 4.4 5.3 5.5 5.7 5.9 6.2 6.6 7.3 7.5 7.7 8.7 10.1 11.0 11.6 13.1 14.4 14.5 13.7 13.1 12.8 11.9
5.4 5.7 6.0 6.0 6.3 6.5 6.8 5.7 5.9 5.9 5.8 5.3 5.0 5.3 4.5 3.7 3.7 3.8 4.1 4.6 5.3 5.7 5.5 5.1 5.3 5.8 6.7 7.3 7.9 8.7 9.5 10.5 11.4 13.2 13.6 13.8 14.5 16.5 16.6 13.9 12.7 11.3 10.8
5.2 5.6 5.8 5.7 6.2 6.4 6.7 6.6 6.8 6.2 6.0 5.6 5.6 6.2 5.8 5.7 5.9 5.5 5.4 5.7 6.5 6.5 6.3 6.3 5.9 6.1 6.9 7.7 8.7 9.6 10.9 12.0 12.6 14.0 14.5 13.9 14.4 15.7 15.5 13.1 11.2 10.8 10.0
4.8 5.2 5.3 5.6 6.1 6.5 7.0 7.3 7.2 7.2 6.8 6.6 6.6 6.9 6.9 7.5 6.9 6.6 6.7 7.1 7.2 8.0 8.1 8.0 7.7 7.3 8.0 8.4 9.5 10.5 11.8 12.9 13.5 14.9 15.5 14.7 14.1 13.2 11.6 10.7 10.4 10.5 10.8
4.5 4.8 5.3 5.7 5.9 6.5 7.2 7.6 7.6 7.7 7.4 7.2 7.2 7.2 6.8 6.6 6.4 6.5 6.9 6.9 7.0 7.3 7.7 8.7 9.0 8.6 9.8 12.1 13.9 14.9 14.2 13.6 13.9 15.7 15.7 14.4 12.9 11.6 10.9 11.5 11.1 11.2 11.1
4.0 4.6 4.9 5.3 5.8 6.4 6.8 6.9 7.3 7.8 7.8 7.7 7.6 7.7 7.4 7.2 6.6 6.7 7.0 7.3 7.1 7.0 6.8 7.7 8.8 8.5 9.1 11.3 13.8 18.0 19.8 17.8 16.4 17.3 17.9 16.1 13.6 12.5 12.7 13.0 12.0 12.0 11.5
3.9 4.1 4.6 5.0 5.3 5.8 6.3 6.7 7.0 7.3 7.6 7.6 7.6 7.7 7.7 7.6 7.8 7.5 7.5 7.6 7.2 7.1 7.0 7.7 8.7 9.1 9.3 11.4 13.1 15.0 16.8 18.1 20.2 20.3 19.6 19.4 16.7 14.3 13.9 13.6 12.3 11.5 11.3
4.0 4.2 4.7 4.8 5.3 5.5 6.0 6.2 6.6 6.9 7.2 7.2 7.4 7.4 7.6 7.6 7.1 7.2 7.6 7.4 7.3 7.4 6.7 7.3 8.4 9.6 10.3 11.7 13.2 14.5 14.7 16.0 17.8 18.8 18.6 18.1 16.6 14.3 13.9 13.7 12.7 12.0 11.8
4.0 4.3 4.5 4.9 5.2 5.2 5.8 6.2 6.5 6.8 7.2 7.5 7.7 7.6 7.9 7.8 7.8 7.8 7.9 8.1 8.2 7.9 7.3 7.4 7.9 9.1 10.5 11.8 12.2 13.2 14.1 13.8 12.1 12.0 14.8 16.7 15.9 13.9 14.0 14.5 13.3 12.7 12.5